EN

Hourly Weather Brodiv

Today, 10 May, Monday

Time Temperature Precipitation Wind Pressure Humidity
00:00 +7°C° 0 mm 3 mps 751 mmHg 70%
01:00 +5°C° 0 mm 3 mps 751 mmHg 73%
02:00 +5°C° 0 mm 3 mps 750 mmHg 76%
03:00 +5°C° 0 mm 3 mps 750 mmHg 76%
04:00 +5°C° 0 mm 3 mps 750 mmHg 77%
05:00 +5°C° 0 mm 3 mps 750 mmHg 77%
06:00 +8°C° 0 mm 3 mps 750 mmHg 72%
07:00 +10°C° 0 mm 4 mps 751 mmHg 66%
08:00 +12°C° 0 mm 4 mps 751 mmHg 61%
09:00 +14°C° 0 mm 4 mps 751 mmHg 57%
10:00 +15°C° 0 mm 5 mps 751 mmHg 53%
11:00 +17°C° 0 mm 5 mps 751 mmHg 49%
12:00 +17°C° 0 mm 5 mps 750 mmHg 49%
13:00 +19°C° 0 mm 5 mps 750 mmHg 48%
14:00 +20°C° 0 mm 5 mps 750 mmHg 47%
15:00 +19°C° 0 mm 5 mps 750 mmHg 50%
16:00 +19°C° 0 mm 4 mps 749 mmHg 53%
17:00 +19°C° 0 mm 4 mps 749 mmHg 56%
18:00 +17°C° 0 mm 4 mps 749 mmHg 63%
19:00 +14°C° 0 mm 4 mps 749 mmHg 70%
20:00 +12°C° 0 mm 3 mps 750 mmHg 77%
21:00 +11°C° 0 mm 3 mps 750 mmHg 79%
22:00 +10°C° 0 mm 3 mps 750 mmHg 81%
23:00 +9°C° 0 mm 3 mps 750 mmHg 83%

Tomorrow, 11 May, Tuesday

Time Temperature Precipitation Wind Pressure Humidity
00:00 +9°C° 0 mm 3 mps 750 mmHg 83%
01:00 +8°C° 0 mm 3 mps 750 mmHg 82%
02:00 +8°C° 0 mm 3 mps 750 mmHg 82%
03:00 +8°C° 0 mm 3 mps 750 mmHg 82%
04:00 +7°C° 0 mm 3 mps 750 mmHg 82%
05:00 +7°C° 0 mm 3 mps 750 mmHg 82%
06:00 +7°C° 0 mm 4 mps 750 mmHg 74%
07:00 +10°C° 0 mm 4 mps 750 mmHg 67%
08:00 +12°C° 0 mm 5 mps 750 mmHg 59%
09:00 +14°C° 0 mm 5 mps 750 mmHg 54%
10:00 +15°C° 0 mm 5 mps 749 mmHg 48%
11:00 +16°C° 0 mm 5 mps 749 mmHg 43%
12:00 +17°C° 0 mm 5 mps 749 mmHg 44%
13:00 +19°C° 0 mm 4 mps 748 mmHg 45%
14:00 +20°C° 0 mm 4 mps 748 mmHg 46%
15:00 +20°C° 0 mm 4 mps 748 mmHg 50%
16:00 +20°C° 0 mm 4 mps 747 mmHg 55%
17:00 +20°C° 0 mm 4 mps 747 mmHg 60%
18:00 +18°C° 0 mm 4 mps 747 mmHg 68%
19:00 +16°C° 0 mm 3 mps 746 mmHg 75%
20:00 +14°C° 0 mm 3 mps 746 mmHg 83%
21:00 +13°C° 0 mm 3 mps 746 mmHg 86%
22:00 +12°C° 0 mm 3 mps 746 mmHg 88%
23:00 +12°C° 0 mm 3 mps 746 mmHg 91%

Day after tomorrow, 12 May, Wednesday

Time Temperature Precipitation Wind Pressure Humidity
00:00 +12°C° 0 mm 3 mps 746 mmHg 93%
01:00 +11°C° 0 mm 3 mps 745 mmHg 94%
02:00 +11°C° 0 mm 3 mps 745 mmHg 96%
03:00 +11°C° 0 mm 4 mps 745 mmHg 95%
04:00 +9°C° 0 mm 5 mps 745 mmHg 94%
05:00 +9°C° 0 mm 5 mps 745 mmHg 93%
06:00 +9°C° 0 mm 6 mps 745 mmHg 86%
07:00 +9°C° 0 mm 6 mps 745 mmHg 79%
08:00 +10°C° 0 mm 7 mps 745 mmHg 71%
09:00 +10°C° 0 mm 7 mps 745 mmHg 69%
10:00 +11°C° 0 mm 7 mps 745 mmHg 66%
11:00 +11°C° 0 mm 7 mps 745 mmHg 63%
12:00 +12°C° 0 mm 7 mps 745 mmHg 62%
13:00 +12°C° 0 mm 7 mps 745 mmHg 61%
14:00 +12°C° 0 mm 7 mps 745 mmHg 61%
15:00 +13°C° 0 mm 6 mps 744 mmHg 62%
16:00 +11°C° 0 mm 6 mps 744 mmHg 64%
17:00 +12°C° 0 mm 5 mps 744 mmHg 65%
18:00 +12°C° 0 mm 5 mps 743 mmHg 66%
19:00 +11°C° 0 mm 4 mps 743 mmHg 66%
20:00 +11°C° 0 mm 3 mps 742 mmHg 67%
21:00 +10°C° 0 mm 3 mps 742 mmHg 73%
22:00 +9°C° 0 mm 3 mps 742 mmHg 79%
23:00 +7°C° 0 mm 3 mps 741 mmHg 85%

13 May, Thursday

Time Temperature Precipitation Wind Pressure Humidity
00:00 +7°C° 0 mm 3 mps 741 mmHg 87%
01:00 +5°C° 0 mm 3 mps 740 mmHg 89%
02:00 +5°C° 0 mm 3 mps 740 mmHg 91%
03:00 +5°C° 0 mm 3 mps 740 mmHg 90%
04:00 +4°C° 0 mm 3 mps 739 mmHg 90%
05:00 +4°C° 0 mm 3 mps 739 mmHg 89%
06:00 +6°C° 0 mm 4 mps 739 mmHg 82%
07:00 +8°C° 0 mm 5 mps 739 mmHg 76%
08:00 +10°C° 0 mm 5 mps 738 mmHg 69%
09:00 +11°C° 0 mm 6 mps 738 mmHg 69%
10:00 +11°C° 0 mm 6 mps 738 mmHg 69%
11:00 +12°C° 0 mm 7 mps 738 mmHg 69%
12:00 +14°C° 0 mm 7 mps 738 mmHg 69%
13:00 +15°C° 0 mm 6 mps 738 mmHg 68%
14:00 +15°C° 0 mm 6 mps 738 mmHg 67%
15:00 +15°C° 0 mm 6 mps 738 mmHg 69%
16:00 +15°C° 0 mm 7 mps 738 mmHg 71%
17:00 +15°C° 0 mm 7 mps 738 mmHg 74%
18:00 +14°C° 0 mm 6 mps 738 mmHg 77%
19:00 +11°C° 0 mm 6 mps 738 mmHg 81%
20:00 +10°C° 0 mm 5 mps 738 mmHg 85%
21:00 +10°C° 0 mm 5 mps 738 mmHg 86%
22:00 +11°C° 0 mm 4 mps 738 mmHg 86%
23:00 +11°C° 0 mm 4 mps 738 mmHg 87%

14 May, Friday

Time Temperature Precipitation Wind Pressure Humidity
00:00 +11°C° 0 mm 4 mps 738 mmHg 88%
01:00 +11°C° 0 mm 4 mps 738 mmHg 90%
02:00 +11°C° 0 mm 4 mps 738 mmHg 91%
03:00 +10°C° 0 mm 3 mps 738 mmHg 92%
04:00 +10°C° 0 mm 3 mps 738 mmHg 94%
05:00 +9°C° 0 mm 2 mps 738 mmHg 95%
06:00 +10°C° 0 mm 2 mps 738 mmHg 90%
07:00 +12°C° 0 mm 2 mps 738 mmHg 86%
08:00 +13°C° 0 mm 2 mps 738 mmHg 81%
09:00 +14°C° 0 mm 2 mps 738 mmHg 79%
10:00 +15°C° 0 mm 2 mps 739 mmHg 76%
11:00 +16°C° 0 mm 2 mps 739 mmHg 73%
12:00 +17°C° 0.2 mm 2 mps 739 mmHg 71%
13:00 +18°C° 0.2 mm 3 mps 739 mmHg 69%
14:00 +18°C° 0.2 mm 3 mps 739 mmHg 67%
15:00 +19°C° 0.1 mm 3 mps 739 mmHg 65%
16:00 +19°C° 0.1 mm 3 mps 739 mmHg 64%
17:00 +19°C° 0.1 mm 3 mps 739 mmHg 62%
18:00 +17°C° 0.1 mm 2 mps 739 mmHg 69%
19:00 +16°C° 0.1 mm 2 mps 739 mmHg 77%
20:00 +14°C° 0.1 mm 2 mps 739 mmHg 84%
21:00 +14°C° 0 mm 2 mps 739 mmHg 86%
22:00 +13°C° 0 mm 2 mps 739 mmHg 87%
23:00 +12°C° 0 mm 2 mps 739 mmHg 89%

15 May, Saturday

Time Temperature Precipitation Wind Pressure Humidity
00:00 +12°C° 0 mm 2 mps 740 mmHg 90%
01:00 +10°C° 0 mm 2 mps 740 mmHg 91%
02:00 +10°C° 0 mm 2 mps 740 mmHg 92%
03:00 +9°C° 0 mm 2 mps 740 mmHg 92%
04:00 +9°C° 0 mm 2 mps 740 mmHg 92%
05:00 +9°C° 0 mm 2 mps 740 mmHg 91%
06:00 +12°C° 0 mm 2 mps 740 mmHg 85%
07:00 +12°C° 0 mm 3 mps 740 mmHg 79%
08:00 +14°C° 0 mm 3 mps 740 mmHg 73%
09:00 +15°C° 0 mm 4 mps 741 mmHg 68%
10:00 +17°C° 0 mm 4 mps 741 mmHg 64%
11:00 +17°C° 0 mm 5 mps 741 mmHg 59%
12:00 +17°C° 0.1 mm 5 mps 741 mmHg 61%
13:00 +17°C° 0.1 mm 6 mps 741 mmHg 64%
14:00 +17°C° 0.1 mm 6 mps 741 mmHg 66%
15:00 +16°C° 0 mm 5 mps 741 mmHg 70%
16:00 +15°C° 0 mm 5 mps 741 mmHg 74%
17:00 +14°C° 0 mm 4 mps 741 mmHg 78%
18:00 +13°C° 0 mm 4 mps 741 mmHg 82%
19:00 +13°C° 0 mm 3 mps 741 mmHg 87%
20:00 +12°C° 0 mm 3 mps 741 mmHg 91%
21:00 +11°C° 0 mm 3 mps 741 mmHg 91%
22:00 +11°C° 0 mm 3 mps 741 mmHg 92%
23:00 +11°C° 0 mm 3 mps 741 mmHg 92%
Show more

We Need Your Consent

Meteoprog and our Service Providers may store and access personal data such as cookies, device identifiers or other similar technologies on your device and process such data to personalise content and ads, as well as provide social media features and to analyse the traffic.

  • Store and/or access information on your device

    Cookies, device identifiers or other information can be stored or accessed on your device for the purposes indicated above.

  • Personalised ads and content, ad and content measurement, audience insights, and products development

    Ads and content can be personalised based on a profile. More data can be added to better personalise ads and content. Ad and content performance can be measured. Insights about the audience who saw the ads and content can be derived. Such data can be used to develop or improve user’s experience, systems and software.

By clicking ‘I Agree’ you will allow the use of indicated cookies, device identifiers, web beacons or other similar technologies. Your settings can be changed in the browser on your device.

For certain purposes, legitimate interests may be relied on, rather than consent. You can read more about this in our Privacy and Cookie Policy.